カタログに戻る

KUIPER-00058

運用中通信LEO
NORAD 64518·PAYLOAD·🇺🇸 United States

打ち上げ Jun 23, 2025 から Cape Canaveral Space Force Station

Loading…

次のパス (今後24時間)

TLE

最新Source: CelesTrak SupGP

元期: Sep 14, 2026, 16:57 UTC

1 64518C 25134U   26257.70670139 -.00001531  00000+0 -20045-3 0  2576
2 64518  51.8988 109.7155 0000791 104.4829 174.5535 14.79920999    18

AllMySatでKUIPER-00058をリアルタイム追跡

Download on the App Store